This is the latest recevied weather packets stored in our database for station/object AD7ZD. If no packets are shown the sender has not sent any weather packets the latest 1 day(s).
| Time | Temp. | Humidity | Pressure | Rain* | Wind** | Luminosity | Snow |
|---|---|---|---|---|---|---|---|
| 1778054426 | 11.11° C | 72% | 1013.1 hPa | 0 mm | 2.24 m/s, 90° | 0 W/m² | - |
| 1778054124 | 12.78° C | 65% | 1013.4 hPa | 0 mm | 1.34 m/s, 169° | 0 W/m² | - |
| 1778053821 | 12.78° C | 64% | 1013.3 hPa | 0 mm | 4.47 m/s, 209° | 0 W/m² | - |
| 1778053518 | 11.67° C | 70% | 1013.4 hPa | 0 mm | 1.34 m/s, 148° | 0 W/m² | - |
| 1778053215 | 11.67° C | 72% | 1013.4 hPa | 0 mm | 2.68 m/s, 154° | 0 W/m² | - |
| 1778052913 | 11.11° C | 76% | 1013.3 hPa | 0 mm | 4.47 m/s, 170° | 0 W/m² | - |
| 1778052610 | 11.11° C | 75% | 1013.4 hPa | 0 mm | 3.58 m/s, 164° | 0 W/m² | - |
| 1778052307 | 11.11° C | 76% | 1013.1 hPa | 0 mm | 3.13 m/s, 149° | 0 W/m² | - |
| 1778052005 | 11.67° C | 75% | 1013.3 hPa | 0 mm | 2.24 m/s, 165° | 0 W/m² | - |
| 1778051715 | 11.67° C | 76% | 1013 hPa | 0 mm | 2.24 m/s, 148° | 0 W/m² | - |
| 1778051399 | 11.67° C | 76% | 1013.1 hPa | 0 mm | 3.13 m/s, 146° | 0 W/m² | - |
| 1778051096 | 11.11° C | 77% | 1013.1 hPa | 0 mm | 2.68 m/s, 139° | 0 W/m² | - |
| 1778050793 | 12.22° C | 72% | 1013 hPa | 0 mm | 2.24 m/s, 140° | 0 W/m² | - |
| 1778050491 | 11.67° C | 73% | 1012.8 hPa | 0 mm | 1.79 m/s, 174° | 0 W/m² | - |
| 1778050187 | 11.67° C | 74% | 1012.8 hPa | 0 mm | 1.34 m/s, 290° | 0 W/m² | - |
| 1778049884 | 12.22° C | 72% | 1012.8 hPa | 0 mm | 0 m/s | 0 W/m² | - |
| 1778049580 | 11.11° C | 77% | 1012.8 hPa | 0 mm | 3.13 m/s, 201° | 0 W/m² | - |
| 1778049278 | 11.11° C | 78% | 1012.7 hPa | 0 mm | 0.45 m/s, 246° | 0 W/m² | - |
| 1778048976 | 11.11° C | 78% | 1012.7 hPa | 0 mm | 1.79 m/s, 143° | 0 W/m² | - |
| 1778048674 | 11.67° C | 75% | 1012.6 hPa | 0 mm | 3.58 m/s, 213° | 0 W/m² | - |
| 1778048370 | 12.22° C | 73% | 1012.6 hPa | 0 mm | 2.68 m/s, 181° | 0 W/m² | - |
| 1778048066 | 12.22° C | 73% | 1012.3 hPa | 0 mm | 3.13 m/s, 180° | 0 W/m² | - |
| 1778047765 | 12.22° C | 72% | 1012.5 hPa | 0 mm | 6.71 m/s, 203° | 0 W/m² | - |
| 1778047462 | 12.78° C | 70% | 1012.1 hPa | 0 mm | 4.02 m/s, 205° | 0 W/m² | - |
| 1778047159 | 12.78° C | 66% | 1012.1 hPa | 0 mm | 2.68 m/s, 210° | 0 W/m² | - |
* Rain latest hour (hover to see other rain measurements)
** Current wind speed in m/s (hover to see current wind gust speed)